Temperature
33 33 33 34 35 34 34 33 33 33 34 34 33 32 31 31 31 30 29 28 27 26 25 24 23 23 21 21 20 20 20 19 19 19 19 19 19 19 19 19 19 19 18 18
33 33 34 35 36 35 35 34 33 33 34 34 33 32 32 32 32 30 29 28 27 26 25 24 24 23 22 21 20 20 20 20 20 20 19 19 19 19 19 19 19 18 18 18
33 34 36 35 35 35 34 34 34 33 33 33 33 31 30 31 32 31 30 29 28 27 26 25 24 23 22 21 21 20 20 20 20 20 19 19 19 19 19 19 19 19 18 18
34 35 35 35 35 35 34 35 35 34 33 32 32 29 29 30 31 31 30 29 28 28 26 25 24 23 23 22 21 20 20 20 20 20 20 19 19 19 19 19 19 19 18 18
34 35 35 34 35 35 35 36 35 34 33 32 32 31 29 30 30 30 30 30 29 28 27 26 25 24 23 22 21 21 20 20 20 20 20 19 19 19 19 19 19 19 18 18
35 36 35 35 36 36 36 35 34 33 32 31 31 31 29 29 29 29 30 30 29 29 27 26 25 24 23 23 22 21 20 20 20 20 19 19 19 19 19 19 19 19 18 18
33 34 35 36 35 35 35 33 31 31 30 30 32 31 30 31 31 30 30 31 30 29 28 26 25 24 23 23 22 21 20 20 20 20 19 19 19 19 19 19 19 19 18 18
32 32 34 35 34 34 34 33 31 30 30 30 30 30 30 32 32 31 31 31 30 29 28 27 25 24 23 23 22 21 20 20 20 20 19 19 19 19 19 19 19 19 18 18
33 33 35 35 35 35 34 33 34 32 31 29 29 28 30 31 32 32 31 30 30 29 28 27 26 25 23 23 22 21 20 20 20 20 19 19 19 19 19 19 18 18 18 18
33 32 34 35 35 35 34 34 33 32 30 29 30 29 28 29 30 31 31 30 30 29 28 27 26 25 23 22 22 21 20 20 20 20 20 19 19 19 19 18 18 18 18 18
33 32 33 34 33 33 34 33 33 32 32 30 29 28 29 28 30 30 30 30 29 28 28 27 25 25 24 23 22 21 20 20 20 19 19 19 19 19 19 19 18 18 18 18
33 32 31 33 35 35 34 34 33 32 31 31 30 29 31 30 31 30 30 29 28 28 27 26 25 24 24 23 22 21 21 20 20 19 19 19 19 19 18 18 18 18 18 18
32 31 30 31 32 34 33 34 34 33 32 31 30 29 31 30 30 29 29 28 28 27 27 26 25 24 24 23 22 22 21 20 20 19 19 19 19 18 18 18 18 18 18 17
30 30 30 29 31 32 32 33 33 33 32 31 30 29 29 30 29 28 28 27 27 26 26 25 24 24 23 23 22 22 21 20 20 19 19 19 19 18 18 18 18 18 17 17
31 30 30 30 32 32 32 32 33 32 32 31 31 30 30 29 29 28 27 27 26 25 25 24 23 23 23 22 22 21 21 20 20 19 19 19 18 18 18 18 18 18 17 17
30 29 29 30 31 31 31 32 32 32 32 32 31 30 30 30 29 28 27 27 26 25 24 23 23 22 22 22 21 21 20 20 20 19 19 18 18 18 18 18 17 17 17 17
30 28 28 29 30 30 30 31 32 32 32 32 31 30 30 29 28 28 27 26 25 25 24 23 22 22 22 21 21 20 20 20 19 19 19 18 18 18 17 17 17 17 17 17
28 28 28 28 29 28 30 32 32 32 31 31 30 30 29 28 27 26 26 25 24 24 23 22 22 22 21 21 21 20 20 19 19 18 18 18 18 17 17 17 17 17 16 16
29 28 28 28 28 28 30 31 31 30 29 30 30 29 29 27 27 26 25 24 23 23 22 21 21 21 21 21 20 20 19 19 18 18 18 18 18 17 17 17 17 17 16 16
29 28 27 27 27 27 28 30 30 30 28 29 29 28 28 27 27 25 24 24 23 22 22 21 21 21 20 20 20 19 19 19 18 18 18 18 17 17 17 17 17 16 16 16
27 27 27 27 26 27 28 29 29 27 26 27 27 27 26 25 25 24 23 23 22 22 21 21 20 20 19 19 19 19 19 18 18 18 18 18 17 17 17 17 16 16 16 16
26 26 26 26 26 25 27 27 26 25 26 26 26 25 24 23 23 23 22 22 21 21 21 20 20 19 19 19 18 18 18 18 17 17 17 17 17 17 17 16 16 16 15 15
26 26 26 26 25 25 25 25 25 25 25 25 25 24 23 23 22 22 21 21 21 20 20 20 19 19 19 18 18 18 17 17 17 17 17 17 17 17 17 16 16 16 15 15
25 26 26 24 24 25 25 24 24 24 24 24 24 23 23 22 22 21 21 21 20 20 19 19 19 19 18 18 18 17 17 17 16 16 16 16 16 17 16 16 16 15 15 15
24 24 24 24 24 24 24 24 23 23 23 23 23 23 22 22 21 21 20 20 19 19 19 19 18 18 18 18 17 17 17 16 16 16 16 16 16 16 16 16 15 15 15 15
24 23 23 23 23 23 23 22 22 22 22 22 22 22 22 21 21 20 19 19 19 18 18 18 18 18 18 17 17 17 16 16 16 16 16 16 16 16 16 15 15 15 15 15
Wind_Speed
14 13 13 12 10 7 8 4 3 2 3 3 5 9 11 13 13 13 13 13 13 12 12 11 11 11 11 9 7 6 6 5 3 2 2 2 2 2 2 2 4 3 2 2
14 16 16 13 11 10 9 7 5 3 5 4 4 6 9 12 12 13 14 14 14 14 13 12 11 11 11 9 8 7 6 6 5 3 2 2 2 2 2 2 3 3 3 2
17 15 15 14 12 11 10 9 6 6 5 5 5 4 6 9 10 13 13 13 14 15 15 14 12 11 11 10 9 7 6 5 4 5 3 2 2 1 2 2 3 2 2 2
17 17 14 13 12 12 10 9 7 6 6 6 7 3 6 9 9 11 13 13 13 14 15 14 13 12 12 11 10 8 7 6 5 4 3 3 3 2 2 2 2 2 2 2
17 17 15 14 12 12 11 7 6 7 6 8 6 3 5 7 8 8 9 13 14 14 15 15 14 12 12 11 11 9 7 6 5 4 3 2 2 1 1 2 3 2 3 3
18 15 14 14 13 12 10 9 9 9 8 9 8 6 4 6 9 9 11 12 14 14 14 14 13 12 11 10 10 10 8 6 5 4 3 2 1 1 1 1 2 2 3 3
18 16 14 13 14 12 11 10 8 9 8 7 7 4 3 8 10 11 13 13 14 15 14 14 14 12 11 10 10 10 9 7 5 4 3 3 2 2 2 2 2 2 1 2
17 16 17 16 15 12 13 14 11 9 8 5 5 2 2 4 8 10 9 9 13 15 14 14 14 13 11 11 10 10 9 7 6 5 4 3 3 2 1 1 1 1 0 1
13 14 15 15 13 14 14 14 12 11 11 6 4 3 3 1 3 8 9 10 11 13 13 13 13 13 12 10 8 8 9 8 7 6 5 3 2 1 0 1 1 0 0 1
13 11 12 12 13 15 15 14 9 10 7 8 5 3 3 4 5 5 8 9 9 11 12 13 13 13 12 11 10 9 9 8 6 6 5 5 3 2 1 1 1 1 1 1
15 13 12 13 15 17 16 16 11 9 9 8 5 2 4 6 5 6 8 9 9 10 11 12 11 12 12 12 12 10 9 8 7 5 4 3 4 3 2 2 2 1 1 1
12 12 12 14 14 14 15 14 13 10 9 9 6 3 5 5 6 7 9 10 9 9 9 11 11 11 10 11 12 10 10 9 7 6 5 4 4 3 3 2 2 2 1 1
6 8 10 13 13 13 14 14 14 12 10 10 8 3 4 4 5 6 7 9 9 8 8 9 10 10 9 9 9 10 9 9 8 7 6 5 4 4 3 3 2 2 1 1
5 9 12 13 11 11 13 14 14 14 11 8 6 5 6 6 7 7 7 8 9 8 7 7 8 7 7 7 7 8 8 7 7 7 6 5 5 4 4 3 2 2 2 2
7 11 13 14 15 12 12 13 14 14 13 10 7 6 8 9 8 7 8 9 10 8 7 7 6 6 6 6 5 6 6 6 6 7 6 5 5 5 4 3 3 2 2 2
8 10 12 14 15 15 14 13 13 13 11 10 7 4 6 7 8 8 8 8 9 8 7 7 6 6 5 5 5 5 5 5 6 6 6 5 5 4 4 4 3 3 2 2
9 9 11 13 14 16 16 13 12 11 11 9 7 3 6 8 7 8 8 7 7 7 7 6 5 5 5 5 5 4 4 5 5 5 5 6 5 4 4 4 3 3 3 2
8 8 9 12 12 17 11 9 8 7 4 3 2 4 4 7 6 7 7 7 6 6 6 5 4 4 4 5 5 5 5 5 5 5 5 5 5 5 4 4 4 3 3 2
10 8 10 11 14 14 9 7 8 5 3 2 2 3 5 6 7 6 7 7 6 6 6 4 3 3 3 3 4 4 5 4 4 5 5 5 5 5 4 4 4 3 3 3
11 8 10 11 13 12 6 6 6 5 4 1 0 1 3 5 5 4 5 5 7 7 5 4 4 4 3 3 3 3 4 4 4 3 4 4 4 4 5 5 4 4 3 4
12 12 14 14 13 7 4 5 5 6 1 2 2 3 4 2 3 7 5 5 7 6 6 5 4 4 3 3 3 3 2 3 3 3 3 3 4 4 5 4 4 4 4 4
10 11 11 12 12 6 5 3 1 2 5 3 3 4 6 6 7 8 6 6 6 5 5 5 4 4 3 3 3 2 2 1 1 2 2 2 3 3 3 3 3 3 4 5
6 5 4 3 2 3 6 5 4 4 3 3 3 5 7 5 4 5 5 5 4 4 3 3 3 3 3 3 3 2 1 1 1 1 2 2 2 2 3 3 4 4 4 4
3 1 2 2 3 3 3 4 4 4 3 2 3 4 5 5 4 4 3 3 3 3 2 2 3 2 2 2 2 2 2 2 2 2 2 2 2 3 3 3 4 4 4 4
3 3 1 1 2 1 1 3 3 3 3 2 2 2 3 4 4 3 3 2 2 1 1 1 2 2 2 2 2 2 2 2 2 2 2 3 4 3 2 2 2 3 2 3
4 3 2 2 0 0 1 3 3 3 3 3 2 1 1 2 3 3 3 2 1 0 0 1 1 1 2 2 2 2 3 3 3 3 4 4 4 3 3 4 3 1 2 1
Wind_Direction
219 228 236 238 237 235 247 231 226 194 204 192 163 155 165 173 172 163 165 165 167 166 162 157 159 154 148 145 148 151 153 150 154 145 180 169 156 159 142 143 132 144 162 150
225 230 239 243 245 245 245 243 224 191 212 227 200 172 171 174 177 170 171 171 170 169 164 163 166 162 155 153 154 156 163 162 167 165 187 187 174 179 151 128 136 155 152 174
226 232 234 240 244 247 255 260 249 215 217 235 238 184 173 183 183 172 173 174 175 172 168 168 171 166 161 162 166 166 159 164 170 179 184 184 166 192 150 155 155 164 173 178
233 236 238 238 243 247 250 260 268 257 245 245 233 209 202 187 186 176 173 173 182 174 169 168 171 172 169 168 167 158 159 162 170 186 183 194 180 175 175 162 148 174 197 187
231 234 235 238 241 247 254 266 274 274 269 270 251 227 183 180 182 180 187 181 179 173 170 169 173 172 171 170 165 160 157 163 171 182 182 209 187 183 156 134 151 185 198 202
242 232 233 236 242 249 254 260 264 264 258 256 251 250 175 171 180 180 197 190 176 171 170 167 167 163 165 164 159 156 156 161 169 185 177 192 174 190 201 171 177 202 187 195
236 237 234 233 237 232 242 250 253 250 240 252 268 253 164 156 161 178 190 181 171 169 168 167 165 162 162 161 159 154 153 161 171 178 172 180 190 217 212 202 188 215 193 171
224 226 226 225 233 233 233 242 245 256 256 244 272 276 198 148 148 160 162 159 163 165 165 167 166 163 165 164 161 155 155 164 169 171 178 184 193 215 196 187 211 207 283 129
240 227 218 219 226 236 242 245 248 259 271 268 211 191 156 147 143 139 142 153 164 162 162 162 162 162 161 158 157 156 155 165 170 173 171 164 163 190 169 160 193 47 48 132
255 252 225 214 221 232 247 255 252 254 259 267 250 208 199 193 174 152 141 144 150 152 155 156 160 157 157 162 161 161 163 163 167 171 173 165 162 174 166 112 99 59 41 42
248 253 242 225 219 225 226 239 248 261 265 260 259 241 182 182 173 156 140 144 153 152 150 150 151 157 162 165 164 167 162 161 167 171 159 150 157 154 129 120 98 86 52 53
235 244 246 243 234 232 235 239 241 247 260 269 264 201 178 168 165 150 140 139 139 140 140 144 148 154 161 166 165 165 164 166 170 163 154 154 144 142 143 137 125 116 100 74
241 246 244 246 236 227 235 236 244 251 258 263 264 216 151 120 102 109 118 119 118 125 130 136 142 150 157 160 162 165 165 167 167 159 156 155 153 150 141 130 121 116 121 119
255 245 249 247 245 232 239 241 243 248 252 253 246 185 162 145 127 123 126 124 121 117 113 119 130 137 143 146 150 152 159 163 162 158 160 162 163 155 146 143 143 143 143 146
236 241 248 255 265 255 239 241 242 246 254 252 234 205 178 157 143 140 138 130 124 124 122 120 122 123 124 129 138 144 152 152 154 159 164 161 158 152 153 157 161 160 171 175
230 249 250 250 254 257 252 245 239 241 244 236 231 223 162 137 140 142 138 133 129 130 129 127 127 132 136 137 141 141 144 154 151 155 156 155 157 160 164 165 170 172 177 180
233 239 250 251 251 258 250 245 239 238 244 244 238 210 160 148 144 142 136 129 131 130 121 120 126 132 137 140 136 139 139 145 152 157 160 161 161 168 180 186 178 182 191 192
244 248 248 251 251 250 252 255 246 237 249 272 162 155 145 129 136 126 121 126 128 123 120 118 127 121 136 149 149 148 153 156 165 168 168 167 167 172 181 190 196 198 198 207
235 234 243 246 243 246 249 246 256 245 242 297 263 168 155 148 144 129 126 130 134 126 123 126 131 124 106 128 141 152 162 161 171 177 176 179 180 184 188 200 203 200 202 211
229 218 235 244 248 247 251 271 277 252 232 327 359 101 150 163 183 133 109 116 119 116 116 114 119 105 92 97 123 143 170 169 175 177 179 181 181 199 204 202 201 203 207 215
220 218 227 242 249 251 294 304 279 249 234 56 54 72 90 91 77 104 108 103 103 109 111 111 108 104 98 98 113 142 158 167 167 159 168 180 187 202 210 200 199 201 208 215
224 225 223 239 245 243 348 340 337 67 54 61 72 80 81 83 92 103 108 99 101 110 116 115 105 107 108 117 127 142 154 145 148 171 187 191 189 207 199 192 209 214 222 224
229 244 234 229 200 70 30 40 49 56 66 56 70 86 96 105 115 112 116 120 117 113 111 115 115 115 114 123 138 161 140 131 154 174 202 195 199 206 190 192 203 211 221 227
229 307 180 127 124 96 49 36 29 31 28 74 98 100 110 123 117 104 101 111 119 116 131 128 122 125 122 133 150 147 136 152 180 189 213 208 206 218 200 203 212 220 222 229
316 309 252 158 135 114 30 23 24 28 13 27 93 126 136 135 134 120 100 76 81 116 130 125 127 149 160 166 164 153 145 156 203 212 209 222 227 222 212 222 245 241 239 229
292 316 269 239 58 318 17 20 18 12 358 346 349 24 110 142 134 123 109 92 81 325 176 168 162 168 162 174 180 172 176 186 208 228 229 234 231 221 212 212 232 309 257 210
Height
1467 1469 1468 1461 1456 1459 1461 1466 1472 1467 1460 1463 1469 1474 1475 1479 1482 1487 1492 1497 1501 1505 1509 1512 1515 1517 1519 1520 1521 1522 1524 1524 1526 1527 1528 1529 1530 1530 1531 1532 1532 1532 1533 1533
1465 1466 1458 1453 1452 1453 1457 1463 1466 1465 1459 1462 1466 1470 1471 1474 1478 1483 1488 1493 1498 1502 1506 1510 1513 1516 1517 1519 1520 1521 1523 1524 1525 1526 1527 1529 1529 1530 1531 1531 1531 1532 1532 1533
1463 1458 1451 1452 1453 1456 1457 1459 1461 1464 1460 1460 1467 1476 1475 1473 1474 1479 1484 1489 1494 1498 1503 1507 1511 1514 1516 1518 1519 1521 1522 1523 1525 1526 1527 1529 1529 1530 1530 1531 1531 1531 1532 1532
1454 1450 1450 1452 1454 1454 1461 1451 1452 1457 1466 1472 1469 1491 1482 1473 1474 1476 1480 1486 1491 1495 1499 1504 1508 1511 1514 1516 1518 1520 1521 1522 1524 1525 1527 1528 1528 1529 1529 1530 1530 1531 1531 1532
1452 1448 1449 1453 1452 1450 1452 1447 1452 1457 1464 1473 1469 1481 1485 1474 1477 1477 1479 1482 1487 1491 1496 1501 1505 1509 1512 1515 1517 1518 1520 1521 1522 1524 1525 1526 1527 1528 1529 1529 1529 1530 1530 1531
1445 1442 1444 1446 1446 1446 1447 1451 1455 1457 1465 1485 1473 1476 1485 1476 1474 1474 1476 1478 1483 1488 1493 1498 1502 1506 1510 1513 1515 1517 1518 1520 1521 1523 1524 1525 1526 1527 1528 1528 1528 1529 1529 1530
1451 1444 1441 1443 1447 1447 1450 1464 1481 1487 1488 1488 1467 1472 1477 1464 1461 1465 1471 1474 1479 1485 1490 1495 1500 1503 1507 1511 1513 1515 1517 1519 1520 1522 1523 1524 1525 1526 1526 1527 1528 1528 1529 1529
1458 1457 1442 1441 1445 1450 1451 1459 1481 1496 1494 1487 1476 1480 1472 1457 1458 1461 1466 1470 1476 1482 1487 1492 1497 1501 1505 1509 1511 1514 1515 1517 1519 1520 1521 1523 1524 1525 1525 1526 1527 1527 1527 1528
1449 1450 1435 1436 1438 1443 1451 1453 1450 1466 1474 1486 1483 1481 1469 1461 1459 1461 1465 1469 1474 1479 1484 1489 1494 1498 1503 1506 1509 1512 1514 1516 1517 1518 1520 1521 1522 1523 1524 1525 1525 1526 1526 1526
1440 1449 1437 1434 1438 1439 1443 1445 1452 1465 1484 1493 1485 1485 1483 1472 1466 1464 1465 1469 1473 1478 1483 1487 1492 1496 1500 1505 1507 1510 1512 1514 1516 1517 1518 1520 1521 1522 1523 1523 1524 1524 1525 1525
1437 1449 1444 1438 1443 1445 1446 1448 1450 1456 1460 1481 1494 1493 1468 1467 1464 1464 1466 1469 1473 1477 1481 1486 1490 1495 1499 1503 1505 1507 1511 1513 1514 1516 1517 1519 1520 1521 1521 1522 1522 1522 1523 1523
1438 1443 1450 1442 1431 1431 1436 1441 1447 1463 1466 1462 1474 1483 1458 1458 1459 1462 1465 1468 1473 1477 1480 1485 1489 1493 1497 1501 1504 1507 1509 1511 1513 1514 1515 1517 1518 1519 1520 1520 1520 1520 1521 1521
1439 1447 1461 1458 1446 1437 1439 1438 1439 1445 1453 1462 1473 1478 1456 1457 1460 1463 1466 1469 1473 1477 1480 1484 1488 1492 1496 1499 1503 1505 1507 1510 1512 1513 1514 1515 1517 1517 1518 1518 1518 1519 1519 1519
1441 1447 1455 1465 1454 1443 1444 1440 1439 1445 1455 1462 1465 1468 1462 1460 1463 1466 1468 1471 1475 1478 1481 1484 1487 1491 1494 1498 1501 1503 1506 1508 1510 1511 1512 1513 1514 1515 1516 1516 1517 1517 1518 1518
1440 1449 1448 1445 1439 1437 1440 1441 1440 1443 1445 1455 1456 1457 1457 1459 1462 1467 1469 1472 1475 1478 1481 1485 1487 1491 1493 1496 1499 1501 1504 1506 1507 1509 1510 1511 1512 1513 1514 1515 1515 1516 1516 1517
1439 1447 1447 1449 1440 1439 1440 1438 1438 1440 1441 1445 1450 1455 1452 1457 1462 1466 1469 1472 1476 1479 1482 1485 1488 1490 1492 1495 1497 1500 1502 1504 1505 1506 1508 1509 1510 1511 1512 1513 1514 1514 1515 1515
1440 1448 1454 1454 1444 1444 1448 1439 1438 1440 1437 1440 1449 1451 1451 1457 1462 1465 1468 1473 1476 1479 1482 1485 1487 1490 1492 1494 1496 1498 1500 1502 1503 1504 1506 1507 1508 1509 1510 1511 1512 1512 1513 1513
1444 1448 1450 1452 1453 1466 1445 1430 1431 1435 1439 1440 1444 1448 1452 1458 1463 1466 1469 1473 1476 1479 1482 1485 1487 1489 1492 1494 1496 1497 1499 1500 1502 1503 1504 1505 1506 1507 1508 1509 1509 1510 1510 1511
1437 1445 1451 1453 1459 1454 1441 1434 1435 1439 1445 1444 1446 1449 1453 1457 1462 1467 1470 1473 1476 1479 1482 1484 1487 1489 1491 1492 1494 1496 1497 1498 1500 1501 1501 1503 1504 1504 1506 1507 1507 1508 1508 1508
1436 1441 1451 1452 1460 1464 1450 1436 1436 1440 1452 1447 1449 1451 1454 1457 1463 1468 1471 1473 1476 1479 1481 1484 1486 1487 1489 1490 1492 1494 1495 1496 1497 1498 1499 1500 1501 1502 1503 1504 1505 1505 1505 1506
1444 1446 1450 1452 1456 1452 1442 1438 1439 1456 1459 1452 1453 1455 1457 1460 1464 1469 1472 1475 1477 1479 1481 1483 1485 1486 1487 1489 1490 1492 1493 1494 1495 1496 1497 1498 1498 1499 1500 1501 1502 1502 1503 1503
1446 1445 1449 1450 1457 1461 1446 1444 1449 1454 1452 1454 1456 1458 1459 1463 1467 1469 1472 1476 1478 1479 1481 1483 1484 1485 1486 1487 1489 1490 1491 1492 1493 1494 1495 1495 1496 1497 1497 1498 1498 1499 1500 1500
1439 1442 1442 1447 1454 1452 1451 1451 1453 1453 1455 1457 1458 1460 1462 1466 1469 1471 1473 1475 1478 1479 1481 1482 1483 1484 1485 1486 1487 1488 1489 1490 1491 1491 1492 1493 1493 1494 1495 1495 1496 1497 1497 1497
1439 1438 1441 1447 1450 1451 1453 1455 1456 1457 1457 1459 1460 1462 1464 1467 1470 1473 1475 1476 1477 1479 1480 1481 1482 1483 1484 1485 1486 1486 1487 1488 1488 1488 1489 1490 1490 1491 1492 1493 1494 1494 1494 1495
1444 1443 1444 1449 1450 1453 1455 1457 1458 1458 1460 1460 1462 1463 1466 1468 1470 1471 1473 1475 1477 1478 1479 1480 1481 1481 1482 1483 1484 1484 1485 1485 1485 1485 1486 1487 1487 1488 1489 1489 1490 1490 1490 1491
1446 1447 1449 1452 1453 1455 1457 1458 1459 1460 1461 1462 1463 1464 1465 1468 1469 1471 1472 1474 1476 1477 1478 1478 1479 1480 1480 1481 1482 1482 1482 1482 1482 1482 1483 1484 1484 1484 1485 1485 1486 1486 1487 1487